Showing default

EYECORE 1, 69011

AKA "EYCORE-1" on Space-Track | Orbit data source: Space-Track

EYECORE 1, 69011 is a Polish payload satellite in SSO that was launched on Sun, 03 May 2026 UTC via an FALCON 9 launch vehicle from the Air Force Western Test Range (AFWTR). Payload-class satellites include a variety of spacecraft equipped with specific instruments for various scientific and technological missions. These include communications satellites like Starlink; space stations such as the ISS; scientific satellites like the Hubble; Earth observation satellites from companies like Planet Labs, Umbra, and HawkEye 360; GPS; miniature CubeSats for education and research; and military/defense satellites.

Loading next visibility...
Identifier
69011, 2026-100AH
Orbit
SSO
Country
Flag of PLPL / POL
Related business
Manufacturer
NanoAvionics
Mission
Operational spacecraft
Bus & Motor
MP42, Unknown motor
Mass
200 kg wet, 200 kg dry
Launch date (UTC)
2026-05-03 (2 months ago)
Launch vehicle
FALCON 9
Launch site
Air Force Western Test Range (AFWTR)
Object type
Payload
Rocket body
Debris
Shape & HBR
Unknown shape, 14.5 m
Radar Cross Section
Medium (>0.1 m² and <1 m²)

Expand to show TLE details & history
Last TLE update: 14 hours ago

TLE from 14 hours ago
0 EYECORE 1
1 69011U 26100AH  26175.19271919  .00004646  00000-0  21451-3 0  9992
2 69011  97.4046  72.9088 0005192  31.3813 328.7731 15.20686137  7871
Epoch: 2026-06-24T04:37Z
TLE epoch observation values (Epoch: 2026-06-24T04:37:30.938Z)
Latitude
-0.00004°
Longitude
91.17644°
Altitude
503.805 km
Speed
7.614 km/s
True Right ascension
04h 51m 38s
True Declination
0° 00' 00"
Sunlit
Object was in daylight at epoch
Visualization orbit readout
Latitude
Unknown
Longitude
Unknown
Altitude
Unknown
Speed
Unknown
Apparent Right ascension
Unknown
Apparent Declination
Unknown
Sunlit
N/A
Visualization observer readout
Local Sidereal Time
06:07:36
Azimuth
Unknown
Elevation
Unknown
Doppler factor
Unknown
Orbital elements
Apogee altitude
504.306 km
Perigee altitude
497.163 km
Semi-major axis
6,878.872 km
Eccentricity
0.00052
Inclination
97.4046°
RAAN
72.9088°
Arg. of periapsis
31.3813°
True anomaly
328.74224°
Mean anomaly
328.7731°
Eccentric anomaly
328.75767°
Mean motion
3.80424 °/min
Orbital period
94.63 mins
BSTAR
0.00021451
Loading maneuver chart data...
Computing Atmospheric mass density...
Loading historical data...
Loading historical data...
Loading historical data...
Loading historical data...
Loading historical data...
Loading historical data...
Loading historical data...

Documentation

Showing up to 5 results
|